{"data":{"norad_id":42847,"intl_designator":"2017-042Y","name":"CORVUS BC1","alt_names":[],"object_type":"PAYLOAD","status":"ACTIVE","operator":null,"country":"US","launch_date":"2017-07-14","launch_site_code":"TYMSC","launch_vehicle":null,"mission":null,"orbit_class":"UNKNOWN","rcs_meters":null,"size_class":null,"mass_kg":null,"dimensions":null,"purposes":["tech_demo"],"wikipedia_slug":null,"has_3d_model":false,"image_url":null,"decayed_at":null,"tle_current":{"epoch":"2026-05-25T00:09:45.588096Z","epoch_age_seconds":74502,"freshness":"FRESH","line1":"1 42847U 17042Y   26145.00677764  .00003528  00000+0  24383-3 0  9994","line2":"2 42847  97.4075 308.0628 0012326 161.9237 198.2432 15.06289604483600","mean_motion":15.06289604,"eccentricity":0.0012326,"inclination_deg":97.4075,"raan_deg":308.0628,"arg_perigee_deg":161.9237,"mean_anomaly_deg":198.2432,"bstar":0.00024383,"rev_number":48360,"period_min":95.599146151977,"perigee_km":539.01332473724,"apogee_km":556.0865281483,"semimajor_km":6925.6869264428,"source":"CELESTRAK","updated_at":"2026-05-25T13:38:25.529630Z"}}}